Torna al catalogo

FENGYUN 1C DEB

AttivoSSO
NORAD 30332·DEBRIS·🇨🇳 China

Lanciato May 10, 1999 da Taiyuan Satellite Launch Center

Loading…

Prossimi Passaggi (prossime 24 ore)

TLE

AggiornatoSource: Space-Track

Epoca: Sep 14, 2026, 10:29 UTC

1 30332U 99025AAT 26257.43716597  .00000212  00000-0  23207-3 0  9992
2 30332  99.7468 240.3658 0177820 106.8939  44.1098 13.76960333985093

Traccia FENGYUN 1C DEB in tempo reale con AllMySat

Download on the App Store